SL-14 R/B, 23005

Orbit data source: Space-Track

SL-14 R/B, 23005 is space debris in LEO originally from a launch on Sat, 12 Feb 1994 UTC launched from the Plesetsk Missile And Space Complex (PKMTR). Debris objects in space refer to the collection of defunct objects orbiting the Earth. Examples of debris include non-operational satellites, rocket bodies, and fragments generated from explosions, collisions, or faulty payload assembly.

Loading next visibility...
Identifier
23005, 1994-011G
Orbit
LEO
Country
Flag of CISCIS
Related business
Manufacturer
Yuzhnoe
Mission
Spacecraft
Bus & Motor
S5M, Unknown motor
Mass
1,600 kg wet, 1,600 kg dry
Launch date (UTC)
1994-02-12 (32 years ago)
Launch vehicle
Unknown
Launch site
Plesetsk Missile And Space Complex (PKMTR)
Object type
Payload
Rocket body
Debris
Shape & HBR
Cyl, 1.4 m
Radar Cross Section
7.351 m², Large (>1 m²)

Expand to show TLE details & history
Last TLE update: 1 day ago

TLE from 1 day ago
0 SL-14 R/B
1 23005U 94011G   25257.48157120  .00000025  00000-0  88766-4 0  9990
2 23005  82.5739 236.5134 0041484  11.9402 110.9942 12.55220357447168
Epoch: 2025-09-14T11:33Z
TLE epoch observation values (Epoch: 2025-09-14T11:33:27.751Z)
Latitude
55.99089°
Longitude
-121.63474°
Altitude
1,463.744 km
Speed
7.131 km/s
True Right ascension
03h 01m 43s
True Declination
55° 50' 44"
Sunlit
Object was in daylight at epoch
Visualization orbit readout
Latitude
Unknown
Longitude
Unknown
Altitude
Unknown
Speed
Unknown
Apparent Right ascension
Unknown
Apparent Declination
Unknown
Sunlit
N/A
Visualization observer readout
Local Sidereal Time
03:56:45
Azimuth
Unknown
Elevation
Unknown
Doppler factor
Unknown
Orbital elements
Apogee altitude
1,472.499 km
Perigee altitude
1,407.633 km
Semi-major axis
7,818.203 km
Eccentricity
0.00415
Inclination
82.5739°
RAAN
236.5134°
Arg. of periapsis
11.9402°
True anomaly
111.43719°
Mean anomaly
110.9942°
Eccentric anomaly
111.21578°
Mean motion
3.13966 °/min
Orbital period
114.66 mins
BSTAR
0.000088766
Loading maneuver chart data...
Computing Atmospheric mass density...
Loading historical data...
Loading historical data...
Loading historical data...
Loading historical data...
Loading historical data...
Loading historical data...
Loading historical data...

Documentation

Showing up to 5 results
|